Starlink 5022

operational
NORAD ID: 53903 Int'l Des: 2022-119 Owner: SPXS Country: US Constellation: starlink
LEOCIRCULAR

About Starlink 5022

Description loading...

Live Position

Loading 3D Globe...

Upcoming Passes

Altitude History

Altitude vs Time

uPlot chart will show altitude changes over time

Two-Line Element Set

1 53903U 22119T 25303.70245889 -.00000462 00000-0 -10967-4 0 9992
2 53903 53.2163 187.4627 0001422 83.6943 276.4211 15.08838023172066
Epoch: Oct 30, 2025 • Age: 11 hours

Current Status

Altitude 552.6 km
Velocity 7.58 km/s
Sub-Earth Point -37.48°S, 54.4°E
Launch Date Sep 24, 2022
Age 3 years
Type internet

Technical Details

Classification Payload
Mass 305.00 kg
Dry Mass 290.00 kg
Total Mass 305.00 kg
Length 0.20 m
Diameter 2.80 m
Span 9.00 m
Shape Box + pan
Manufacturer SPXS
Bus Type Starlink
Phase Status In Orbit
Owner/State SPXS/US

Large Constellations

Loading constellations...